W5CGC Weather Reports


time (UTC)temp
C
wind
direction
speed
KPH
gust
KPH
rain 1hr
cm
rain 24hr
cm
rain mn
cm
humidity
%
barometer
mb
20260510013040 26 0 0.0 0.0 0.00 0.00 0.00 51 1007.8
20260510011538 27 0 0.0 0.0 0.00 0.00 0.00 48 1007.5
20260510010038 27 0 0.0 1.6 0.00 0.00 0.00 47 1007.3
20260510004538 27 139 0.0 1.6 0.00 0.00 0.00 43 1007.3
20260510003039 28 139 0.0 0.0 0.00 0.00 0.00 47 1007.3
20260510001537 29 0 0.0 0.0 0.00 0.00 0.00 41 1007.3
20260510000038 31 0 0.0 0.0 0.00 0.00 0.00 37 1007.2
20260509234538 32 0 0.0 0.0 0.00 0.00 0.00 32 1007.3
20260509233034 31 0 0.0 0.0 0.00 0.00 0.00 35 1007.5
20260509231534 31 0 0.0 1.6 0.00 0.00 0.00 33 1007.5
20260509230032 31 0 0.0 3.2 0.00 0.00 0.00 32 1007.5
20260509224539 33 0 0.0 0.0 0.00 0.00 0.00 30 1007.5
20260509223036 32 94 0.0 3.2 0.00 0.00 0.00 28 1007.6
20260509221535 32 32 0.0 3.2 0.00 0.00 0.00 30 1007.6
20260509220038 31 79 1.6 4.8 0.00 0.00 0.00 34 1007.7
20260509214536 32 276 1.6 8.0 0.00 0.00 0.00 32 1007.7
20260509213034 31 0 1.6 6.4 0.00 0.00 0.00 35 1007.8
20260509211544 32 0 0.0 3.2 0.00 0.00 0.00 34 1008.0
20260509210039 31 169 1.6 4.8 0.00 0.00 0.00 36 1008.2
20260509204537 31 181 0.0 4.8 0.00 0.00 0.00 35 1008.3
20260509203033 30 164 1.6 4.8 0.00 0.00 0.00 38 1008.5
20260509201532 31 85 0.0 4.8 0.00 0.00 0.00 37 1008.7
20260509200043 30 0 1.6 6.4 0.00 0.00 0.00 39 1008.8
20260509194538 31 108 0.0 4.8 0.00 0.00 0.00 40 1009.1
20260509193037 31 0 0.0 3.2 0.00 0.00 0.00 42 1009.2
20260509191535 31 135 0.0 4.8 0.00 0.00 0.00 40 1009.2
20260509190033 31 173 1.6 3.2 0.00 0.00 0.00 35 1009.4
20260509184554 31 0 0.0 3.2 0.00 0.00 0.00 36 1009.5
20260509183039 30 0 0.0 4.8 0.00 0.00 0.00 39 1009.6
20260509181543 30 148 0.0 3.2 0.00 0.00 0.00 40 1009.8
20260509180038 30 154 0.0 3.2 0.00 0.00 0.00 38 1009.9
20260509174536 30 0 0.0 3.2 0.00 0.00 0.00 38 1010.1
20260509173035 30 160 0.0 3.2 0.00 0.00 0.00 40 1010.1
20260509171539 29 169 1.6 6.4 0.00 0.00 0.00 42 1010.3
20260509170032 29 103 0.0 3.2 0.00 0.00 0.00 41 1010.5
20260509164537 28 155 0.0 8.0 0.00 0.00 0.00 42 1010.5
20260509163044 28 115 0.0 6.4 0.00 0.00 0.00 41 1010.5
20260509161534 27 134 1.6 9.7 0.00 0.00 0.00 42 1010.4
20260509160032 27 143 0.0 6.4 0.00 0.00 0.00 46 1010.4
20260509154544 26 152 1.6 4.8 0.00 0.00 0.00 56 1010.3
20260509153033 25 103 1.6 4.8 0.00 0.00 0.00 62 1010.3
20260509151538 25 0 0.0 4.8 0.00 0.00 0.00 63 1010.4
20260509150037 24 165 0.0 4.8 0.00 0.00 0.00 63 1010.4
20260509144532 23 0 0.0 6.4 0.00 0.00 0.00 67 1010.4
20260509143045 23 0 0.0 1.6 0.00 0.00 0.00 69 1010.4
20260509141541 22 0 0.0 1.6 0.00 0.00 0.00 75 1010.3
20260509140040 22 0 0.0 1.6 0.00 0.00 0.00 78 1010.5
20260509134537 21 0 0.0 1.6 0.00 0.00 0.00 79 1010.3
20260509133038 21 0 0.0 1.6 0.00 0.00 0.00 80 1010.2
20260509131540 20 143 0.0 3.2 0.00 0.00 0.00 81 1010.3
20260509130042 20 0 0.0 1.6 0.00 0.00 0.00 82 1010.3
20260509124538 20 0 0.0 0.0 0.00 0.46 0.00 82 1010.2
20260509123045 20 0 0.0 1.6 0.00 0.46 0.00 82 1010.2
20260509121534 20 0 0.0 0.0 0.00 0.46 0.00 82 1010.2
20260509120033 19 139 0.0 1.6 0.00 0.46 0.00 81 1010.0
20260509114535 20 0 0.0 4.8 0.00 0.51 0.00 80 1009.7
20260509113038 20 140 0.0 6.4 0.00 0.51 0.00 79 1009.6
20260509111542 20 0 0.0 1.6 0.00 0.51 0.00 79 1009.1
20260509110033 20 0 0.0 1.6 0.00 0.51 0.00 78 1008.8
20260509104536 20 0 0.0 0.0 0.00 0.76 0.00 77 1008.7
20260509103045 20 0 0.0 0.0 0.00 0.76 0.00 76 1008.5
20260509101539 20 0 0.0 0.0 0.00 0.76 0.00 75 1008.4
20260509100045 20 0 0.0 0.0 0.00 0.76 0.00 73 1008.4
20260509094534 21 0 0.0 0.0 0.00 1.02 0.00 72 1008.1
20260509093035 21 0 0.0 1.6 0.00 1.02 0.00 72 1007.8
20260509091538 21 0 0.0 3.2 0.00 1.02 0.00 73 1007.6
20260509090036 22 0 0.0 6.4 0.00 1.02 0.00 73 1007.8
20260509084532 22 153 0.0 30.6 0.00 1.02 0.00 74 1007.6
20260509083041 21 311 4.8 17.7 0.00 1.02 0.00 77 1004.9
20260509081539 21 12 6.4 20.9 0.00 1.02 0.00 78 1005.2
20260509080034 21 359 4.8 17.7 0.00 1.02 0.00 79 1006.8
20260509074541 21 91 3.2 12.9 0.00 1.75 0.00 79 1008.1
20260509073038 21 77 0.0 8.0 0.00 1.75 0.00 80 1009.0
20260509071532 20 68 3.2 6.4 0.00 1.75 0.00 82 1009.2
20260509070034 20 0 0.0 4.8 0.00 1.75 0.00 83 1009.9
20260509064533 20 0 0.0 1.6 0.00 1.75 0.00 83 1010.3
20260509063036 20 0 0.0 1.6 0.00 1.75 0.00 82 1010.4
20260509061550 20 0 0.0 0.0 0.00 1.75 0.00 81 1010.4
20260509060036 20 0 0.0 0.0 0.00 1.75 0.00 80 1010.3
20260509054541 20 0 0.0 1.6 0.00 1.75 0.00 80 1010.2
20260509053051 20 0 0.0 0.0 0.00 1.75 0.00 79 1011.0
20260509051534 21 0 0.0 0.0 0.00 1.75 0.00 79 1011.2
20260509050033 21 0 0.0 1.6 0.00 1.75 0.00 79 1011.6
20260509044538 21 0 0.0 0.0 0.00 1.75 1.75 78 1010.0
20260509043034 21 0 0.0 0.0 0.00 1.75 1.75 77 1010.1
20260509041538 21 0 0.0 3.2 0.00 1.75 1.75 77 1009.6
20260509040039 21 0 0.0 3.2 0.00 1.75 1.75 76 1009.7
20260509034538 22 0 0.0 1.6 0.00 1.75 1.75 76 1009.5
20260509033038 22 172 0.0 0.0 0.00 1.75 1.75 77 1010.1
20260509031537 21 0 0.0 1.6 0.00 1.75 1.75 76 1010.1
20260509030035 21 0 0.0 1.6 0.00 1.75 1.75 76 1009.3
20260509024538 22 0 0.0 0.0 0.00 1.75 1.75 75 1009.0
20260509023039 22 0 0.0 3.2 0.00 1.75 1.75 75 1008.5
20260509021538 22 0 0.0 3.2 0.00 1.75 1.75 75 1008.1
20260509020039 22 0 0.0 1.6 0.00 1.75 1.75 74 1007.9
20260509014535 22 0 0.0 4.8 0.00 1.75 1.75 74 1007.7